Lapse_Rate
1.8 2.0 2.0 2.2 2.5 2.5 2.9 3.2 3.4 3.7 3.8 3.9 4.0 4.1 4.2 3.6 3.8 6.5 6.6 7.1 7.6 7.7 7.5 6.7 7.1 7.1 7.2 6.6 6.7 6.6 6.5 6.5 6.5 6.5 6.5 5.8 6.4 5.6 5.2 5.5 5.4 4.5 5.4 4.8 6.0
1.6 1.9 2.1 2.0 2.1 2.2 2.4 2.8 3.1 3.3 3.4 3.4 3.6 3.6 3.8 3.4 4.1 7.1 7.1 7.8 7.7 7.8 6.5 6.6 6.3 6.6 5.6 6.1 6.3 6.0 6.5 6.5 6.5 6.5 6.5 6.3 6.2 5.9 5.7 5.6 6.5 6.4 5.0 5.6 6.2
1.6 1.6 1.6 1.6 1.6 1.7 2.0 2.3 2.5 2.9 3.1 3.0 3.1 3.1 3.1 3.2 5.3 7.1 7.7 7.8 8.2 7.9 7.0 6.8 6.5 6.8 6.2 6.3 5.7 5.9 6.5 6.5 6.5 6.6 6.4 6.2 6.0 5.7 6.1 6.5 6.5 6.9 6.2 6.0 6.2
1.4 1.5 1.3 1.2 1.2 1.3 1.5 1.7 2.0 2.3 2.7 2.7 2.5 2.5 2.6 4.7 6.5 7.5 8.1 7.9 8.3 8.2 7.0 7.5 6.6 6.1 6.4 6.5 5.6 6.5 6.1 6.4 6.2 6.3 6.0 6.5 5.6 6.3 5.9 5.8 5.6 7.3 6.3 6.0 6.5
1.0 1.0 0.9 0.7 0.6 0.8 1.1 1.3 1.7 2.2 2.1 2.2 2.3 2.3 3.0 5.6 6.6 8.4 8.5 8.0 7.7 7.6 7.1 7.0 6.7 6.0 6.5 6.1 5.8 6.5 6.5 6.3 6.1 5.6 5.8 5.6 6.5 6.3 6.0 4.5 4.9 5.8 6.5 6.3 6.7
0.8 0.4 0.2 0.3 0.5 0.7 0.7 1.2 1.4 1.8 1.8 1.6 2.1 2.0 4.8 6.2 7.5 8.2 7.8 7.1 7.5 7.4 6.5 6.6 6.7 6.8 6.0 6.2 6.5 5.9 5.9 6.1 6.1 6.0 5.9 6.4 6.4 6.3 5.9 4.9 5.3 6.2 6.9 6.6 6.7
0.5 0.2 0.1 0.1 0.5 0.6 0.8 0.9 1.0 1.2 1.3 1.5 1.8 2.5 4.6 5.0 7.6 7.4 6.7 6.9 7.1 7.4 6.2 6.9 7.1 6.9 6.1 6.5 5.5 5.7 6.5 6.5 6.3 6.1 6.4 6.3 6.5 6.5 4.7 6.2 6.2 6.2 6.7 6.5 6.4
0.3 0.2 -0.1 -0.0 0.3 0.4 0.3 0.4 0.2 0.4 0.7 1.2 2.0 3.0 3.7 7.0 7.2 6.5 6.2 5.5 6.2 6.1 6.4 6.4 7.0 6.7 6.6 5.3 6.1 6.5 6.5 6.5 6.5 6.4 6.0 6.1 6.5 6.5 4.8 5.9 5.0 6.0 6.2 6.5 6.3
-0.1 -0.3 -0.1 -0.1 -0.1 -0.2 -0.4 -0.3 -0.1 0.4 0.8 1.5 3.4 4.9 4.4 7.3 6.1 5.7 6.5 6.2 4.9 5.7 6.6 7.6 7.3 6.2 6.0 6.5 6.5 6.5 6.5 6.5 6.5 6.5 6.5 6.5 6.5 6.5 5.2 6.1 6.5 5.9 6.5 5.8 6.0
-0.4 -0.6 -0.7 -0.5 -0.6 -0.5 -0.7 -0.1 1.0 1.2 1.4 3.1 4.7 5.7 5.8 5.8 5.5 5.3 6.1 6.1 5.4 4.9 5.5 6.1 5.3 6.5 6.5 6.5 6.5 6.5 6.5 6.5 6.5 6.5 6.5 6.5 6.5 6.5 6.2 6.8 6.6 5.9 6.9 5.0 5.1
-0.6 -0.8 -0.8 -0.6 -0.4 0.2 -0.8 0.8 2.0 4.3 3.5 5.4 5.9 6.0 5.4 5.2 5.1 6.4 6.4 5.0 5.4 5.5 6.5 5.8 6.5 6.5 6.5 6.5 6.5 6.5 6.5 6.5 6.5 6.5 6.5 6.5 6.5 6.5 6.3 6.0 5.7 6.2 6.4 5.5 5.0
-0.7 -1.0 -0.8 -0.5 -0.2 2.8 1.8 2.1 3.2 3.3 4.4 4.3 5.5 5.3 5.7 6.3 5.4 5.5 5.8 5.0 5.8 6.5 6.1 6.5 6.5 6.5 6.5 6.5 6.5 6.5 6.5 6.5 6.5 6.5 6.5 6.5 6.5 6.5 6.5 6.4 6.3 6.0 6.2 6.2 5.6
-0.9 -1.1 -0.9 -0.4 0.8 1.3 1.7 3.0 4.2 4.5 5.4 5.3 5.6 6.1 6.0 5.9 6.0 5.4 5.3 4.8 6.4 6.5 6.5 6.5 6.5 6.4 6.5 6.5 6.5 6.5 6.5 6.5 6.5 6.5 6.5 6.5 6.5 6.5 6.5 5.8 6.6 6.7 5.9 5.2 5.1
-0.9 -1.1 -0.9 -0.7 2.1 1.9 2.1 3.2 4.3 4.2 6.5 6.5 6.3 6.3 6.0 6.1 5.9 6.2 5.6 5.8 6.2 6.5 6.5 6.5 6.4 6.5 6.5 6.5 6.5 6.5 6.5 6.5 6.5 6.5 6.5 6.5 6.5 6.5 6.5 6.5 6.5 5.9 3.6 3.9 5.3
-0.7 -0.9 -0.4 -0.3 0.8 2.3 2.8 3.4 3.9 3.4 6.5 6.5 6.4 6.0 5.9 6.2 5.9 6.2 5.1 6.0 6.5 6.5 6.5 6.5 6.5 6.5 6.5 6.5 6.5 6.5 6.5 6.5 6.5 6.5 6.5 6.5 6.5 6.5 6.5 6.5 6.5 6.3 5.2 4.3 3.9
-0.4 -0.4 -0.2 0.7 0.6 1.9 2.4 2.7 3.1 6.5 6.5 6.5 6.4 6.5 6.4 6.2 6.3 5.9 5.3 5.5 5.8 6.5 6.5 6.5 6.3 6.5 6.5 6.5 6.5 6.5 6.5 6.5 6.5 6.5 6.5 6.5 6.5 6.5 6.5 6.5 6.5 6.2 5.1 5.2 4.7
-0.2 -0.1 0.1 0.8 1.9 1.8 1.9 2.2 6.5 6.5 6.5 6.5 6.5 6.5 6.5 6.5 6.5 6.5 6.5 6.5 6.5 6.5 6.5 6.5 6.5 6.5 6.4 6.5 6.5 6.5 6.5 6.5 6.5 6.5 6.5 6.5 6.5 6.5 6.5 6.5 6.5 6.5 4.5 4.3 4.1
0.1 -0.0 1.1 1.4 1.5 1.3 1.6 6.2 6.5 6.5 6.5 6.5 6.5 6.5 6.5 6.5 6.5 6.5 6.5 6.5 6.5 6.5 6.5 6.5 6.5 6.5 6.5 6.5 6.5 6.5 6.5 6.5 6.5 6.5 6.5 6.5 6.5 6.5 6.5 6.2 5.1 4.9 5.0 4.8 4.8
0.6 0.1 0.4 0.4 1.9 1.0 3.5 6.5 6.5 6.5 6.5 6.5 6.5 6.5 6.5 6.5 6.5 6.5 6.5 6.5 6.5 6.5 6.5 6.5 6.5 6.5 6.5 6.5 6.5 6.5 6.5 6.5 6.5 6.5 6.5 6.5 6.5 6.5 6.5 6.5 5.8 5.3 4.6 5.0 5.5
-0.2 1.4 2.1 1.9 2.1 1.4 5.8 6.5 6.5 6.4 6.4 6.5 6.5 6.5 6.5 6.5 6.5 6.5 6.5 6.5 6.5 6.5 6.1 6.5 6.5 6.5 6.5 6.5 6.5 6.5 6.5 6.5 6.5 6.5 6.5 6.5 6.5 6.5 6.5 6.5 6.5 6.4 5.7 5.0 4.4
0.3 2.7 2.5 2.5 1.6 3.0 6.5 6.5 6.5 6.4 6.3 6.5 6.5 6.5 6.5 6.5 6.5 6.5 6.5 6.5 6.5 6.5 6.4 6.5 6.5 6.5 6.5 6.5 6.5 6.5 6.5 6.5 6.5 6.5 6.5 6.5 6.5 6.5 6.5 6.5 6.5 6.1 3.9 3.4 2.6
1.5 5.7 2.4 1.8 4.7 4.2 6.5 6.5 5.3 6.5 6.4 6.4 6.5 6.5 6.5 6.5 6.5 6.5 6.5 6.5 6.1 6.4 6.5 6.5 6.5 6.5 6.5 6.5 6.5 6.5 6.5 6.5 6.5 6.5 6.5 6.5 6.5 6.5 6.5 6.6 5.8 5.1 3.2 2.6 3.0
2.5 3.0 3.0 2.6 6.5 6.5 6.0 6.5 6.2 6.5 6.5 6.5 6.5 6.5 6.5 6.5 6.5 6.5 6.5 6.1 5.9 6.5 6.5 6.5 6.5 6.5 6.5 6.5 6.5 6.5 6.5 6.5 6.5 6.5 6.5 6.5 6.5 6.5 6.0 6.1 5.8 6.0 4.0 3.1 2.8
2.3 6.5 3.4 3.0 3.4 6.4 6.5 6.5 6.5 5.9 6.3 6.5 6.5 6.3 6.5 6.5 6.5 6.5 6.5 6.4 5.7 5.6 5.6 6.0 6.5 6.5 6.5 6.5 6.5 6.5 6.5 6.5 6.5 6.5 6.5 6.5 6.5 6.5 6.5 6.5 5.9 3.8 3.1 3.3 3.5
1.9 4.4 5.0 6.5 6.1 6.3 6.4 6.5 6.5 6.5 6.3 6.4 6.5 6.5 6.5 6.5 6.5 6.5 6.5 6.5 6.2 6.0 6.0 6.5 6.5 6.5 6.5 6.5 6.5 6.5 6.5 6.5 6.5 6.5 6.5 6.5 6.5 6.5 6.5 6.5 5.8 4.0 3.6 3.7 3.8
2.9 3.9 3.2 3.9 5.6 6.5 6.4 6.5 6.5 6.5 6.5 6.5 6.5 6.5 6.5 6.5 6.5 6.5 6.5 6.5 6.5 6.4 6.5 6.4 6.5 6.5 6.5 6.5 6.5 6.5 6.5 6.5 6.5 6.5 6.5 6.5 6.5 6.5 5.8 3.7 5.0 4.2 4.9 4.4 3.8
2.0 2.6 3.1 4.3 5.9 6.5 6.5 6.5 6.5 6.4 6.3 6.4 6.4 6.5 6.5 6.4 6.0 4.9 4.3 4.7 5.5 6.5 6.5 6.5 6.5 6.5 6.5 6.5 6.5 6.5 6.5 6.5 6.5 6.5 6.5 6.5 6.5 6.6 6.5 6.3 5.1 4.6 4.5 4.2 3.8
Wind_Speed
9 9 9 9 10 10 12 13 14 15 16 17 19 19 19 20 20 2 2 5 7 15 16 9 7 7 3 5 4 1 2 2 4 5 5 11 9 5 3 5 8 9 6 15 20
9 9 9 9 10 10 11 13 14 14 16 18 20 20 18 18 3 1 4 7 10 11 6 7 8 8 4 4 3 3 1 4 7 10 10 8 12 9 3 4 3 4 12 23 21
10 9 9 9 9 10 11 12 13 15 16 18 20 22 20 14 2 1 2 7 10 10 5 11 8 4 4 2 4 5 6 9 15 11 12 7 10 6 7 5 6 8 14 17 21
11 11 10 11 11 11 12 13 14 15 16 18 19 22 27 2 3 3 4 4 11 13 5 6 7 6 4 5 5 4 10 11 14 6 3 4 6 10 2 7 7 8 13 14 17
10 11 12 13 12 12 13 13 14 14 15 17 18 20 7 4 3 9 7 7 8 3 6 8 4 5 5 7 8 6 4 8 11 6 6 2 10 11 4 3 5 10 16 17 16
12 12 12 13 13 13 13 15 15 15 16 16 16 17 2 3 4 9 10 7 4 1 4 5 4 6 6 6 7 5 7 11 9 6 6 4 6 2 2 4 7 13 16 17 18
13 13 14 14 14 16 16 16 17 17 15 15 11 4 3 6 3 10 8 5 4 1 4 2 3 3 5 7 4 8 8 9 12 6 5 1 2 6 6 7 4 8 12 14 14
14 15 14 13 15 18 19 19 18 18 14 12 5 2 5 5 3 5 6 7 6 6 5 5 4 3 3 6 8 4 3 5 6 6 6 5 7 5 9 14 13 4 4 8 9
12 14 16 18 19 21 22 22 19 13 8 7 1 1 7 1 5 7 3 5 7 5 4 4 2 3 5 4 5 4 6 6 7 6 4 5 6 4 5 3 7 8 8 4 4
12 13 15 18 22 24 25 22 8 6 2 3 3 3 3 6 5 7 4 7 6 7 6 3 2 2 4 5 4 7 7 4 5 4 2 5 6 1 11 7 2 8 10 10 9
13 14 16 20 22 26 14 3 5 4 5 1 3 3 6 9 5 3 5 7 6 4 5 3 7 5 9 6 8 7 4 6 4 6 3 6 6 7 9 11 8 3 5 10 8
15 16 16 18 21 19 4 5 3 3 6 5 3 4 6 1 4 5 6 5 5 4 7 7 3 7 8 7 8 7 5 6 5 10 6 3 7 8 12 8 13 15 13 8 8
17 17 18 20 15 5 5 3 2 2 1 5 4 3 5 2 4 5 4 5 2 5 5 1 5 7 7 5 11 5 4 5 5 10 4 1 7 4 6 7 9 12 17 13 14
16 16 17 26 3 2 2 4 4 0 4 2 2 2 1 2 4 1 2 1 5 5 6 4 4 6 8 3 5 5 3 5 6 6 2 4 4 7 3 5 11 10 9 12 11
16 14 15 10 2 3 2 5 4 1 4 2 2 1 1 1 4 2 1 2 4 4 4 6 4 5 4 5 4 8 8 10 4 3 3 9 4 7 5 7 3 4 9 14 14
17 12 13 4 2 1 5 4 2 5 4 3 0 3 3 2 2 4 1 2 4 4 2 7 1 2 2 10 3 7 6 5 3 2 3 5 4 6 3 0 2 4 3 8 9
14 10 4 2 1 5 5 3 5 4 1 2 3 2 3 3 4 1 2 4 3 6 6 7 3 1 1 6 6 9 7 4 6 5 2 5 4 7 3 2 2 4 6 5 4
14 7 1 1 3 4 2 4 1 3 1 2 3 3 3 1 2 3 2 0 3 3 1 3 8 5 5 2 3 5 3 4 2 3 5 4 2 5 3 1 5 5 6 4 6
17 1 0 1 3 3 3 3 6 2 1 5 7 2 1 1 1 5 2 3 2 2 2 5 6 3 2 1 2 7 5 1 1 2 1 3 5 3 4 6 6 6 5 4 1
3 2 1 2 3 3 3 5 3 1 2 0 2 1 3 4 1 4 3 1 3 1 3 1 5 3 3 1 2 1 4 4 3 4 4 5 5 4 3 4 5 3 3 4 3
2 3 2 2 2 4 3 6 2 1 1 1 2 4 3 3 2 3 3 1 2 3 1 1 2 7 4 0 3 2 2 2 1 3 2 4 6 6 5 5 6 7 8 7 8
1 1 2 2 2 0 2 2 0 1 0 2 1 3 3 3 3 3 3 1 2 2 3 2 3 3 9 4 3 1 1 3 3 5 1 3 7 7 5 5 3 6 7 7 8
0 2 2 3 1 2 4 2 1 1 3 2 3 4 2 2 3 3 4 3 3 3 2 0 2 4 8 5 3 1 3 3 1 2 5 2 6 1 7 8 3 5 8 8 7
2 3 3 3 2 2 2 3 2 0 3 1 2 3 2 2 5 5 2 2 4 5 7 3 3 7 6 8 1 7 5 4 6 3 5 11 19 19 18 12 12 9 7 7 6
2 3 2 2 3 2 2 3 1 2 2 1 3 3 1 3 5 5 2 5 3 3 4 5 6 4 5 6 7 12 16 11 10 12 9 22 12 20 17 14 13 7 7 7 7
2 2 3 2 1 0 2 2 2 3 2 2 2 5 2 4 4 8 3 2 7 3 4 3 4 4 7 6 10 15 16 18 12 11 13 14 21 19 16 9 6 6 3 5 6
1 1 4 3 0 2 2 2 2 2 3 2 3 3 5 5 3 7 8 8 9 7 6 4 4 1 8 3 4 13 5 3 4 4 5 5 9 7 7 8 7 5 4 5 6
Wind_Direction
359 354 353 353 345 344 343 343 351 349 342 337 333 333 332 330 327 331 39 306 326 331 324 300 336 335 302 228 222 115 305 300 285 273 270 341 303 315 260 40 344 325 176 150 144
360 353 349 345 340 340 343 340 343 340 338 335 330 329 328 327 310 311 243 348 342 333 307 317 310 314 317 280 226 150 128 253 227 271 299 318 344 316 47 74 353 34 94 130 137
350 345 341 333 336 335 339 334 334 333 333 331 326 325 323 321 328 237 288 4 333 318 280 288 270 258 293 289 248 208 221 249 273 275 295 319 325 328 133 165 306 169 139 140 143
350 341 337 332 333 336 334 328 328 328 328 326 324 325 322 165 32 291 324 1 316 311 286 307 329 3 304 320 302 283 247 241 261 254 263 308 300 311 223 156 163 161 147 147 152
347 341 335 333 334 331 327 324 320 321 321 320 324 329 352 351 285 299 333 311 308 350 336 330 353 342 354 299 317 291 301 318 292 261 234 234 279 285 231 211 21 197 160 149 152
347 343 339 336 331 329 325 319 315 316 314 315 324 332 358 354 252 299 319 307 292 326 298 343 328 320 283 291 304 296 313 298 297 244 247 216 290 263 298 59 92 166 164 151 147
346 345 340 337 333 326 320 314 310 308 306 306 319 323 328 233 282 318 322 308 294 265 266 237 304 21 311 298 303 315 295 301 280 260 239 323 266 232 156 104 143 169 169 146 145
346 344 338 335 329 321 314 308 302 298 297 288 308 336 255 258 289 338 334 317 304 289 216 240 244 255 213 259 341 330 40 336 282 226 249 137 276 287 180 149 124 333 191 138 147
353 347 341 335 327 318 311 304 299 295 266 279 304 103 293 283 358 301 328 294 303 279 243 215 82 258 308 1 347 0 304 298 306 196 204 154 258 307 137 66 132 178 171 155 164
352 347 344 336 329 320 314 308 274 321 215 232 271 354 293 309 305 298 277 272 267 314 340 83 49 3 7 40 321 291 318 296 4 345 136 264 276 118 161 143 203 226 219 150 159
348 343 342 336 335 327 334 17 16 9 17 203 285 248 291 307 299 295 309 330 349 42 10 319 52 349 292 283 267 265 331 360 300 358 297 263 282 222 143 134 147 313 220 155 182
347 340 336 337 333 344 3 64 122 206 319 302 261 271 262 116 305 318 18 42 3 344 1 13 356 302 310 329 6 26 17 344 310 337 327 293 286 256 165 177 182 159 199 182 160
345 338 332 331 332 36 76 56 334 27 242 292 224 256 282 50 302 292 31 341 321 354 348 37 288 334 355 4 0 325 14 328 292 318 319 302 318 303 189 193 207 177 186 177 168
348 341 334 334 51 328 53 327 326 23 64 259 261 274 236 226 287 239 80 98 344 325 346 267 313 352 334 348 30 309 306 324 322 13 316 49 300 328 240 184 180 182 167 199 187
346 348 340 11 280 50 306 322 306 39 28 243 224 143 316 273 297 303 121 84 302 296 64 270 319 346 325 307 349 253 306 293 266 308 10 351 68 285 42 32 12 249 206 200 199
342 342 349 45 53 337 322 328 38 42 266 351 288 317 360 213 239 301 122 56 272 321 250 255 335 174 258 306 266 300 320 3 61 58 40 301 101 305 16 3 98 41 308 219 196
341 336 352 323 197 327 326 66 27 123 302 322 311 340 1 279 311 206 306 16 39 15 345 327 328 294 315 343 346 13 23 357 9 14 228 282 52 237 282 310 94 84 34 43 191
331 315 309 79 334 5 38 53 185 245 1 331 254 290 191 347 259 291 309 146 22 54 321 39 332 359 344 124 276 313 75 117 351 343 287 310 265 267 130 8 60 61 118 86 108
320 290 248 256 3 56 68 69 218 227 323 354 323 292 265 283 305 7 293 144 123 60 73 10 291 318 254 313 69 326 29 178 244 287 347 268 304 30 26 45 45 42 40 61 217
322 342 247 347 34 67 81 232 238 321 340 234 258 288 317 297 304 14 306 158 146 125 116 289 301 282 311 356 326 130 290 22 12 356 315 306 311 224 227 194 172 169 210 261 240
63 346 309 27 57 58 200 229 290 48 7 213 284 307 299 311 311 275 266 85 97 196 124 282 145 292 348 350 263 357 5 3 148 148 239 310 271 216 234 233 202 227 225 229 237
60 315 268 74 35 167 240 252 323 305 247 286 197 230 253 317 300 284 258 120 81 107 313 209 177 263 266 311 348 113 103 108 112 297 262 201 269 282 199 91 199 317 300 276 256
108 262 322 94 199 256 274 260 245 205 251 179 273 222 39 294 310 250 310 219 152 129 190 253 289 326 333 350 358 62 208 190 135 100 212 206 260 342 315 328 348 300 297 302 308
55 331 332 35 220 207 288 281 211 205 271 241 280 21 339 278 231 280 270 230 204 196 163 124 218 195 212 236 261 283 259 232 194 185 250 232 274 285 292 299 305 315 292 303 304
82 261 223 275 277 249 345 310 310 283 203 308 318 232 232 292 330 256 322 331 279 251 176 163 224 239 248 262 284 277 281 268 213 228 206 271 255 271 280 278 283 275 317 335 333
133 95 341 270 283 42 252 261 304 333 321 321 200 315 334 233 237 284 340 215 241 239 189 205 251 195 276 258 271 289 285 270 241 247 238 251 272 274 268 272 243 281 315 324 329
278 1 117 276 300 89 271 323 45 19 309 116 119 345 300 278 260 247 222 238 235 243 206 206 190 171 267 247 346 305 245 165 204 192 208 238 250 304 279 256 252 244 246 275 290